Air Resources Laboratory banner image
Air Resources Laboratory web site National Oceanic and Atmospheric Administration (NOAA)

nh roundup


Office: GYX

ASUS41 KGYX 201505
RWRGYX
WEATHER ROUNDUP FOR MAINE AND NEW HAMPSHIRE
NATIONAL WEATHER SERVICE GRAY ME
1000 AM EST TUE NOV 20 2018

MEZ002-005-006-010-012-015-018-020-021-024-026-027-029-201600-
MAINE

CITY           SKY/WX    TMP DP  RH WIND       PRES   REMARKS
PORTLAND       LGT SNOW  33  31  92 NE8       29.96R VSB 3/4
SANFORD        LGT SNOW  32  31  96 NE9       29.93F VSB 3/4
BAR HARBOR     CLOUDY    32  28  85 N10       29.96F
WISCASSET      LGT SNOW  32  31  96 CALM      29.97S FOG
ROCKLAND       LGT SNOW  33  31  92 NE6       29.95F VSB 1
FRYEBURG       LGT SNOW  32  30  92 N5        29.95F FOG
LEWISTONAUBURN MIX PCPN  32  30  92 N9        29.95F FOG
AUGUSTA        LGT SNOW  30  27  88 N7        29.96F FOG
WATERVILLE     LGT SNOW  30  26  85 MISG      29.95R FOG
BANGOR         CLOUDY    30  26  85 N9        29.98S
GREENVILLE       N/A     27  22  81 CALM      29.89S
MILLINOCKET    CLOUDY    24  21  88 NE5       30.00S
HOULTON        FAIR      23  20  88 N9        29.97F
PRESQUE ISLE   FAIR      24  18  77 N8        30.01F
FRENCHVILLE    PTSUNNY   20  12  71 N7        29.97F
CARIBOU        FAIR      21  15  78 N9        29.98F
$$

NHZ002-005-008-009-011-012-014-201600-
NEW HAMPSHIRE

CITY           SKY/WX    TMP DP  RH WIND       PRES   REMARKS
PORTSMOUTH     LGT SNOW  33  32  97 N7        29.91S VSB 5/8
ROCHESTER      SNOW      32  32 100 N7        29.92F VSB 1/2
NASHUA         LGT SNOW  33  33 100 NW5       29.92F FOG
MANCHESTER     SNOW      34  32  92 N5        29.90F VSB 1/2
CONCORD        LGT SNOW  33  32  96 N3        29.92S VSB 3/4
LACONIA        LGT SNOW  32  31  96 NE8       29.91F VSB 1
BERLIN         SNOW      27  25  92 CALM      29.90F VSB 1/2
WHITEFIELD     CLOUDY    32  26  78 E8        29.88F
JAFFREY        LGT SNOW  33  33 100 VRB3      29.88R VSB 1
KEENE          LGT SNOW  33  32  96 NE3       29.90S FOG
LEBANON        LGT SNOW  34  30  85 NE5       29.90S VSB 3/4
MT WASHINGTON  SNOW      19  19 100 SW12        N/A  VSB 1/8 WCI   7
$$

VTZ005-007-008-201600-
VERMONT

CITY           SKY/WX    TMP DP  RH WIND       PRES   REMARKS
ST JOHNSBURY     N/A     28  25  88 MISG      29.90F
MONTPELIER     CLOUDY    30  28  92 CALM      29.91F
BURLINGTON     LGT SNOW  29  26  89 N6        29.93S FOG
$$

MAZ007-012-024-CTZ003-RIZ002-NYZ038-NYZ072-201600-
SOUTHERN NEW ENGLAND AND NY

CITY           SKY/WX    TMP DP  RH WIND       PRES   REMARKS
BOSTON         RAIN      41  38  89 N13       29.89R FOG
WORCESTER      LGT SNOW  31  31 100 NE12      29.85F FOG
NANTUCKET      FAIR      52  50  93 S8        29.83S
PROVIDENCE     LGT RAIN  38  37  97 N9        29.86S FOG
HARTFORD       LGT RAIN  35  34  96 N7        29.89S
ALBANY         LGT SNOW  35  31  85 NW5       29.92S FOG
NEW YORK CITY  CLOUDY    42  38  85 NW9       29.87S FOG
$$

ANZ081-ANZ082-ANZ150-NHZ014-MEZ023>029-201600-
COASTAL MARINE OBSERVATIONS

STATION/POSITION TIME  TEMP    WIND        PRES    WAVE
                       AIR SEA DIR/SP/G            HT/PER
                 (UTC) (F)     (DEG/KT/KT) (MB)    (FT/S)
MOUNT DESERT ROC 1500   34      10/ 17/ 19 1013.9R
MATINICUS ROCK   1400   34      40/ 16/ 19 1013.4F
ISLE OF SHOALS   1400   38      50/ 24/ 26 1011.5F
$$

.............KEY..............
   WCI - WIND CHILL
   TC  - TEMPERATURE IN CELSIUS
   VSB - VISIBILITY IN MILES
   HX  - HEAT INDEX
   FAIR- INDICATES FEW OR NO CLOUDS BELOW 12,000 FT, WITH NO
         SIGNIFICANT WEATHER AND/OR OBSTRUCTIONS TO VISIBILITY.




ASUS41 KGYX 201510
RWRGYX
WEATHER ROUNDUP FOR MAINE AND NEW HAMPSHIRE
NATIONAL WEATHER SERVICE GRAY ME
1000 AM EST TUE NOV 20 2018

MEZ002-005-006-010-012-015-018-020-021-024-026-027-029-201600-
MAINE

CITY           SKY/WX    TMP DP  RH WIND       PRES   REMARKS
PORTLAND       LGT SNOW  33  31  92 NE8       29.96R VSB 3/4
SANFORD        LGT SNOW  32  31  96 NE9       29.93F VSB 3/4
BAR HARBOR     CLOUDY    32  28  85 N10       29.96F
WISCASSET      LGT SNOW  32  31  96 CALM      29.97S FOG
ROCKLAND       LGT SNOW  33  31  92 NE6       29.95F VSB 1
FRYEBURG       LGT SNOW  31  29  92 NE7       29.94F FOG
LEWISTONAUBURN MIX PCPN  32  30  92 N9        29.95F FOG
AUGUSTA        LGT SNOW  30  27  88 N7        29.96F FOG
WATERVILLE     LGT SNOW  30  26  85 MISG      29.95R FOG
BANGOR         CLOUDY    30  26  85 N9        29.98S
GREENVILLE       N/A     27  22  81 CALM      29.89S
MILLINOCKET    CLOUDY    24  21  88 NE5       30.00S
HOULTON        FAIR      23  20  88 N9        29.97F
PRESQUE ISLE   FAIR      24  18  77 N8        30.01F
FRENCHVILLE    PTSUNNY   20  12  71 N7        29.97F
CARIBOU        FAIR      21  15  78 N9        29.98F
$$

NHZ002-005-008-009-011-012-014-201600-
NEW HAMPSHIRE

CITY           SKY/WX    TMP DP  RH WIND       PRES   REMARKS
PORTSMOUTH     LGT SNOW  33  32  97 N7        29.91S VSB 5/8
ROCHESTER      SNOW      32  32 100 N7        29.92F VSB 1/2
NASHUA         LGT SNOW  33  33 100 NW5       29.92F FOG
MANCHESTER     SNOW      34  32  92 N5        29.90F VSB 1/2
CONCORD        LGT SNOW  33  32  96 N3        29.92S VSB 3/4
LACONIA        LGT SNOW  32  31  96 NE8       29.91F VSB 1
BERLIN         SNOW      27  25  92 CALM      29.90F VSB 1/2
WHITEFIELD     CLOUDY    32  26  78 E8        29.88F
JAFFREY        LGT SNOW  33  33 100 VRB3      29.87S VSB 3/4
KEENE          LGT SNOW  33  32  96 NE3       29.90S FOG
LEBANON        LGT SNOW  34  30  85 NE5       29.90S VSB 3/4
MT WASHINGTON  SNOW      19  19 100 SW12        N/A  VSB 1/8 WCI   7
$$

VTZ005-007-008-201600-
VERMONT

CITY           SKY/WX    TMP DP  RH WIND       PRES   REMARKS
ST JOHNSBURY     N/A     28  25  88 MISG      29.90F
MONTPELIER     CLOUDY    30  28  92 CALM      29.91F
BURLINGTON     LGT SNOW  29  26  89 N6        29.93S FOG
$$

MAZ007-012-024-CTZ003-RIZ002-NYZ038-NYZ072-201600-
SOUTHERN NEW ENGLAND AND NY

CITY           SKY/WX    TMP DP  RH WIND       PRES   REMARKS
BOSTON         RAIN      41  38  89 N13       29.89R FOG
WORCESTER      LGT SNOW  31  31 100 NE12      29.85F FOG
NANTUCKET      FAIR      52  50  93 S8        29.83S
PROVIDENCE     LGT RAIN  38  37  97 N9        29.86S FOG
HARTFORD       LGT RAIN  35  34  96 N7        29.89S
ALBANY         LGT SNOW  35  31  85 NW5       29.92S FOG
NEW YORK CITY  CLOUDY    42  38  85 NW9       29.87S FOG
$$

ANZ081-ANZ082-ANZ150-NHZ014-MEZ023>029-201600-
COASTAL MARINE OBSERVATIONS

STATION/POSITION TIME  TEMP    WIND        PRES    WAVE
                       AIR SEA DIR/SP/G            HT/PER
                 (UTC) (F)     (DEG/KT/KT) (MB)    (FT/S)
MOUNT DESERT ROC 1500   34      10/ 17/ 19 1013.9R
MATINICUS ROCK   1400   34      40/ 16/ 19 1013.4F
ISLE OF SHOALS   1400   38      50/ 24/ 26 1011.5F
$$

.............KEY..............
   WCI - WIND CHILL
   TC  - TEMPERATURE IN CELSIUS
   VSB - VISIBILITY IN MILES
   HX  - HEAT INDEX
   FAIR- INDICATES FEW OR NO CLOUDS BELOW 12,000 FT, WITH NO
         SIGNIFICANT WEATHER AND/OR OBSTRUCTIONS TO VISIBILITY.






Office: BOX ASUS41 KBOX 201510 RWRBOX REGIONAL WEATHER ROUNDUP NATIONAL WEATHER SERVICE BOSTON/NORTON MA 1000 AM EST TUE NOV 20 2018 NOTE: "FAIR" INDICATES FEW OR NO CLOUDS BELOW 12,000 FEET WITH NO SIGNIFICANT WEATHER AND/OR OBSTRUCTIONS TO VISIBILITY. MAZALL-201600- EASTERN MASSACHUSETTS CITY SKY/WX TMP DP RH WIND PRES REMARKS BOSTON RAIN 41 38 89 N13 29.89R FOG BEVERLY LGT RAIN 39 36 89 NE9 29.88S FOG LAWRENCE LGT SNOW 35 31 85 N7 29.92F FOG WCI 29 BEDFORD LGT SNOW 34 32 92 N6 29.88F FOG WCI 29 BLUE HILL N/A 37 37 100 NE10G22 29.83F WCI 30 NORWOOD LGT RAIN 40 37 89 N7 29.87F FOG MARSHFIELD LGT RAIN 46 45 93 NE10 29.85S VSB 3/4 PLYMOUTH LGT RAIN 45 44 97 NE8 29.83F FOG TAUNTON RAIN 42 41 96 N8 29.84S FOG NEW BEDFORD LGT RAIN 44 44 100 CALM 29.82F FOG $$ MAZALL-201600- CAPE COD AND THE ISLANDS CITY SKY/WX TMP DP RH WIND PRES REMARKS FALMOUTH NOT AVBL HYANNIS CLOUDY 51 49 92 SE6 29.81F CHATHAM CLOUDY 52 49 89 VRB6 29.84S PROVINCETOWN CLOUDY 46 46 100 E12 29.84F FOG NANTUCKET FAIR 52 50 93 S8 29.83S MARTHAS VNYRD CLOUDY 52 51 97 CALM 29.82F $$ MAZALL-201600- CENTRAL AND WESTERN MASSACHUSETTS CITY SKY/WX TMP DP RH WIND PRES REMARKS WORCESTER LGT SNOW 31 31 100 NE12 29.85F FOG WCI 22 FITCHBURG LGT SNOW 33 31 92 N5 29.91S FOG WCI 29 ORANGE LGT SNOW 34 32 92 NW5 29.89S FOG WCI 30 SPRINGFIELD LGT SNOW 33 32 95 N6 29.88S FOG WCI 28 WESTFIELD LGT SNOW 33 32 96 N7 29.88F FOG WCI 27 NORTH ADAMS LGT SNOW 33 33 100 CALM 29.88F FOG PITTSFIELD CLOUDY 34 31 88 N3 29.84F FOG $$ RIZALL-201600- RHODE ISLAND CITY SKY/WX TMP DP RH WIND PRES REMARKS PROVIDENCE LGT RAIN 38 37 97 N9 29.86S FOG WCI 31 NEWPORT LGT RAIN 41 41 100 N9 29.83F FOG BLOCK ISLAND LGT RAIN N/A N/A N/A N10 29.83S SMITHFIELD LGT RAIN 36 34 93 N10 29.86S FOG WCI 28 WESTERLY LGT RAIN 42 42 100 VRB6 29.85R FOG $$ CTZALL-201600- CONNECTICUT CITY SKY/WX TMP DP RH WIND PRES REMARKS BRADLEY INTL LGT RAIN 35 34 96 N7 29.89S WCI 29 HARTFORD LGT RAIN 37 35 92 N8 29.88F WCI 31 BRIDGEPORT LGT RAIN 40 36 86 N9 29.87R DANBURY CLOUDY 37 37 100 N3 29.88S FOG GROTON LGT RAIN 40 39 97 N9 29.84S FOG NEW HAVEN CLOUDY 40 37 89 N14 29.86S CHESTER NOT AVBL MERIDEN LGT RAIN 37 35 92 N8 29.88R WCI 31 WILLIMANTIC LGT RAIN 37 37 100 N6 29.87F FOG OXFORD CLOUDY 35 34 96 N8 29.86R WCI 29 $$ MEZ002-015-021-024-NHZ003-005-008-011-012-014-VTZ005-008-201600- NORTHERN NEW ENGLAND CITY SKY/WX TMP DP RH WIND PRES REMARKS PORTLAND ME LGT SNOW 33 31 92 NE8 29.96R VSB 3/4 WCI 26 BANGOR ME CLOUDY 30 26 85 N9 29.98S WCI 22 CONCORD NH LGT SNOW 33 32 96 N3 29.92S VSB 3/4 MANCHESTER NH SNOW 34 32 92 N5 29.90F VSB 1/2 WCI 30 NASHUA NH LGT SNOW 33 33 100 NW5 29.92F FOG WCI 29 PORTSMOUTH NH LGT SNOW 33 32 97 N7 29.91S VSB 5/8 WCI 27 JAFFREY NH LGT SNOW 33 33 100 VRB3 29.87S VSB 3/4 KEENE NH LGT SNOW 33 32 96 NE3 29.90S FOG BURLINGTON VT LGT SNOW 29 26 89 N6 29.93S FOG WCI 23 MT. WASHINGTON SNOW 19 19 100 SW12 N/A VSB 1/8 WCI 7 $$ NYZ052-076-201600- EASTERN NEW YORK CITY SKY/WX TMP DP RH WIND PRES REMARKS ALBANY LGT SNOW 35 31 85 NW5 29.92S FOG WCI 31 NEW YORK CITY CLOUDY 42 38 85 NW9 29.87S FOG $$ ANZALL-201600- MARINE OBSERVATIONS STATION/POSITION TIME TEMP WIND PRES VSBY WAVE AIR SEA DIR/SP/G HT/PER (UTC) (F) (DEG/KT/KT) (MB) (MI) (FT/S) BOSTON BUOY 1450 44 51 40/ 19/ 23 1010.4F 3/ 4 BUZZARDS BAY 1400 46 20/ 10/ 10 1010.6F NANTUCKET SOUND 1450 49 48 140/ 10/ 12 1009.6F 1/ 6 MASS BAY-STELLWA 1404 42 49 70/ 21/ 25 1010.1F 1 7/8 4/ 4 ISLE OF SHOALS 1400 38 50/ 24/ 26 1011.5F S OF BLOCK IS 1443 56 N/A 3/ 9 $$ ......................KEY......................... SKY/WX - SKY CONDITION/PRESENT WEATHER TMP - TEMPERATURE IN FAHRENHEIT DWPT - DEWPOINT IN FAHRENHEIT RH - RELATIVE HUMIDITY IN PERCENT WIND - DIRECTION AND SPEED IN MPH PRES - MEAN SEA LEVEL PRESSURE IN INCHES OF HG WCI - WIND CHILL INDEX VSB - VISIBILITY IN MILES HX - HEAT INDEX TC - TEMPERATURE IN CELSIUS VRB - VARIABLE WIND DIRECTION N/A - NOT AVAILABLE